sat.trackr.live / text

‹ back to catalog

STARLINK-31314

NORAD 58967 · 2024-031C

PAYLOAD ACTIVE UNKNOWN

§ Identity

Operator
Country
US
Launch date
2024-02-15
Launch site
AFWTR
Launch vehicle
Mass (kg)
RCS (m²)

Purposes: comms

External: N2YO · Heavens-Above · Gunter

§ Orbital elements

Epoch: 2026-05-25T03:40:06.193344Z

Period
94.11 min
Inclination
53.1607°
Eccentricity
0.0000776
Mean motion
15.30198044 rev/d
Perigee alt
474.7 km
Apogee alt
475.8 km
Semi-major
6,853.4 km
B*
-1.1648e-6
RAAN
301.2751°
Arg perigee
117.1505°
Mean anomaly
242.9575°
Rev number
12,824

§ Raw data

STARLINK-313141 58967U 24031C   26145.15284946 -.00000393  00000+0 -11648-5 0  99932 58967  53.1607 301.2751 0000776 117.1505 242.9575 15.30198044128244

JSON: /api/v1/satellites/58967 · /tle

For live sub-satellite position, see the globe view (requires WebGL).

§ Visibility from observer

Set your observer location to see the next 7 days of passes ≥ 10°. The values pass through the URL so the page stays shareable.

No JS? Fill the form by hand. The geolocation button needs JavaScript.